[[{"header":{"parameterUnit":"m.s-1","parameterCategory":1,"la1":30.2991,"la2":30.254,"lo1":-89.0895,"lo2":-89.0444,"dy":0.0017,"dx":0.0017,"nx":28,"ny":28,"refTime":"2023-09-01T09:00:00:Z","depth":0,"parameterNumber":2,"parameterNumberName":"U-component_of_WINDS"},"data":[0,0,0,0,0,0,0,0,0,0,0,0,0,0,0,0,0,0,0,0,0,0,0,0,0,0,0,0,0,0,0,0,0,0,0,0,0,0,0,0,0,0,0,0,0,0,0,0,0,0,0,0,0,0,0,0,0,0,-0.3519,-0.3519,0,-0.3467,-0.3466,-0.3465,-0.3439,-0.3439,-0.3439,-0.3439,-0.3382,-0.338,-0.3379,0,0,0,0,0,0,0,0,0,0,0,0,0,-0.3597,-0.3595,-0.3519,-0.3519,-0.3518,-0.3467,-0.3466,-0.3465,-0.3439,-0.3439,-0.3439,-0.3439,-0.3382,-0.338,-0.3379,0,0,0,0,0,0,0,0,0,0,0,0,0,-0.3555,-0.3595,-0.3519,-0.3499,-0.3497,-0.3467,-0.3466,-0.3465,-0.3439,-0.3439,-0.3439,-0.3439,-0.3383,-0.3381,-0.3378,-0.3364,0,0,-0.3371,-0.337,0,0,0,0,0,0,0,0,-0.3558,-0.3552,-0.3503,-0.35,-0.3498,-0.3459,-0.3472,-0.3431,-0.3439,-0.3461,-0.3439,-0.3439,-0.3407,-0.3403,-0.3393,-0.3361,-0.3359,-0.3371,-0.337,-0.3369,-0.3368,0,0,0,0,0,0,0,-0.3561,-0.3555,-0.3498,-0.3502,-0.3499,-0.3492,-0.3486,-0.3464,-0.3435,-0.3459,-0.3457,-0.3451,-0.3406,-0.3395,-0.3392,-0.3358,-0.3371,-0.3369,-0.3368,-0.3367,-0.3315,-0.3315,0,0,0,0,0,0,-0.3567,-0.3557,-0.35,-0.3497,-0.3528,-0.3491,-0.3484,-0.3472,-0.3435,-0.3429,-0.3451,-0.345,-0.3399,-0.3394,-0.3389,-0.3372,-0.3369,-0.3367,-0.3365,-0.3315,-0.3315,-0.3315,0,0,0,0,0,0,-0.3569,-0.3562,-0.3502,-0.3526,-0.3518,-0.3489,-0.3476,-0.3471,-0.346,-0.3429,-0.3423,-0.3446,-0.3399,-0.3393,-0.3371,-0.337,-0.3366,-0.3364,-0.3315,-0.3315,-0.3315,-0.3336,0,0,0,0,0,0,-0.3571,-0.3563,-0.3557,-0.3527,-0.3517,-0.3485,-0.3475,-0.347,-0.3456,-0.3455,-0.3422,-0.3417,-0.3399,-0.3375,-0.3369,-0.3366,-0.3362,-0.3315,-0.3315,-0.3315,-0.3335,-0.3337,-0.3338,0,0,0,0,0,-0.3574,-0.3564,-0.3557,-0.355,-0.351,-0.3485,-0.348,-0.346,-0.3456,-0.345,-0.3431,-0.3418,-0.3371,-0.3373,-0.3366,-0.3363,-0.3315,-0.3315,-0.3315,-0.3335,-0.3337,-0.3338,0,0,0,0,0,0,-0.3593,-0.3559,-0.3551,-0.3531,-0.3512,-0.3481,-0.3473,-0.3462,-0.3441,-0.344,-0.3415,-0.3408,-0.339,-0.3374,-0.3377,-0.3348,-0.3342,-0.334,-0.3359,-0.3361,-0.3362,-0.3366,-0.336,0,0,0,0,0,-0.3596,-0.3579,-0.355,-0.3536,-0.3526,-0.3502,-0.349,-0.3477,-0.3455,-0.3446,-0.3425,-0.3403,-0.3384,-0.3371,-0.3351,-0.3333,-0.3327,-0.3328,-0.3329,-0.333,-0.3329,-0.3321,-0.3322,-0.3315,-0.3315,-0.3315,0,0,-0.3599,-0.3579,-0.357,-0.3539,-0.3522,-0.3506,-0.3494,-0.3477,-0.3465,-0.3443,-0.3422,-0.3406,-0.3381,-0.3362,-0.3352,-0.3348,-0.333,-0.333,-0.3331,-0.333,-0.3321,-0.3322,-0.3322,-0.3315,-0.3315,-0.3315,0,0,-0.3598,-0.3581,-0.3568,-0.3552,-0.3527,-0.3511,-0.3509,-0.348,-0.3469,-0.3449,-0.3433,-0.3418,-0.3384,-0.3367,-0.3354,-0.3351,-0.3339,-0.3345,-0.3352,-0.3344,-0.3344,-0.3345,-0.3345,-0.3345,-0.3344,-0.3344,-0.3344,0,-0.3606,-0.3582,-0.3562,-0.3547,-0.3534,-0.3516,-0.3503,-0.3488,-0.3457,-0.3449,-0.3445,-0.3405,-0.3386,-0.3364,-0.3364,-0.3354,-0.335,-0.3348,-0.3346,-0.3346,-0.3346,-0.3346,-0.3346,-0.3345,-0.3345,-0.3345,-0.3345,0,-0.3593,-0.3577,-0.3569,-0.3543,-0.3529,-0.3515,-0.3494,-0.3482,-0.3471,-0.3456,-0.3436,-0.3413,-0.339,-0.3384,-0.3371,-0.3361,-0.3359,-0.3351,-0.3344,-0.3348,-0.3348,-0.3348,-0.3347,-0.3346,-0.3346,-0.3346,0,0,-0.3601,-0.3566,-0.3564,-0.3553,-0.3526,-0.3513,-0.3499,-0.3477,-0.3469,-0.3449,-0.3437,-0.3411,-0.3404,-0.339,-0.3375,-0.3369,-0.337,-0.3361,-0.336,-0.3365,-0.3359,-0.3366,-0.3366,-0.3362,-0.3362,-0.3362,-0.3362,0,-0.3597,-0.3572,-0.3555,-0.3536,-0.3522,-0.3505,-0.3493,-0.3475,-0.3461,-0.3447,-0.3431,-0.3413,-0.3405,-0.3396,-0.3389,-0.3371,-0.3368,-0.3371,-0.3351,-0.335,-0.3358,-0.3366,-0.3372,-0.3374,-0.3361,-0.3361,-0.3361,0,-0.3588,-0.3572,-0.3552,-0.353,-0.3523,-0.3512,-0.3493,-0.348,-0.346,-0.345,-0.3436,-0.3422,-0.3407,-0.3402,-0.3381,-0.3383,-0.3374,-0.3365,-0.3364,-0.3362,-0.3356,-0.3365,-0.3373,-0.3374,-0.336,-0.3361,-0.3361,0,-0.3598,-0.3571,-0.3556,-0.3547,-0.352,-0.3513,-0.3501,-0.3482,-0.3471,-0.3454,-0.3447,-0.3428,-0.3417,-0.3403,-0.3385,-0.3382,-0.3367,-0.3359,-0.3359,-0.336,-0.3356,-0.3357,-0.3365,-0.3349,-0.3349,-0.3349,-0.3349,0,-0.3596,-0.3585,-0.3561,-0.3552,-0.354,-0.3521,-0.3509,-0.3496,-0.3479,-0.3468,-0.3452,-0.3441,-0.3417,-0.3404,-0.339,-0.3376,-0.3371,-0.3363,-0.3359,-0.3365,-0.3366,-0.3359,-0.3359,-0.3349,-0.3349,-0.3349,-0.3349,0,-0.3604,-0.3587,-0.3571,-0.3548,-0.3542,-0.3534,-0.3514,-0.3505,-0.3491,-0.3477,-0.3473,-0.345,-0.3434,-0.3415,-0.3392,-0.3382,-0.3371,-0.3364,-0.3378,-0.3376,-0.3377,-0.3378,-0.3381,-0.3381,-0.3365,-0.3365,-0.3365,0,-0.3604,-0.3596,-0.3573,-0.3565,-0.3554,-0.3541,-0.3531,-0.3513,-0.3503,-0.3482,-0.3476,-0.3459,-0.3444,-0.3419,-0.3401,-0.3384,-0.3378,-0.3381,-0.3375,-0.3382,-0.338,-0.3381,-0.3381,-0.3382,-0.3382,-0.3382,-0.3382,0,-0.3606,-0.3599,-0.3586,-0.3571,-0.356,-0.3546,-0.3532,-0.3526,-0.3505,-0.3495,-0.3479,-0.3468,-0.3447,-0.3431,-0.3412,-0.3399,-0.3388,-0.3385,-0.3384,-0.339,-0.3398,-0.3395,-0.3383,-0.3384,-0.3384,-0.3384,-0.3384,-0.3384,-0.3611,-0.3604,-0.3588,-0.3574,-0.3562,-0.355,-0.3541,-0.3528,-0.3515,-0.3497,-0.3487,-0.3472,-0.3455,-0.3429,-0.3417,-0.3405,-0.3401,-0.34,-0.3399,-0.3399,-0.3402,-0.34,-0.3402,-0.3402,-0.3402,-0.3401,-0.3401,0,-0.3613,-0.3603,-0.3591,-0.3573,-0.3563,-0.3555,-0.3539,-0.3531,-0.3519,-0.3504,-0.3491,-0.3475,-0.346,-0.3442,-0.3426,-0.342,-0.3415,-0.3417,-0.3417,-0.3415,-0.3406,-0.3409,-0.3422,-0.3422,-0.3422,-0.3422,-0.3422,-0.3422,-0.3614,-0.3602,-0.3594,-0.3577,-0.3566,-0.3553,-0.3545,-0.3534,-0.3523,-0.3506,-0.3494,-0.3483,-0.3467,-0.3451,-0.3437,-0.3432,-0.3427,-0.3431,-0.3425,-0.3417,-0.3415,-0.3413,-0.3416,-0.343,-0.343,-0.3435,-0.3435,-0.3435]},{"header":{"parameterUnit":"m.s-1","parameterCategory":1,"la1":30.2991,"la2":30.254,"lo1":-89.0895,"lo2":-89.0444,"dy":0.0017,"dx":0.0017,"nx":28,"ny":28,"refTime":"2023-09-01T09:00:00:Z","depth":0,"parameterNumber":3,"parameterNumberName":"V-component_of_WINDS"},"data":[0,0,0,0,0,0,0,0,0,0,0,0,0,0,0,0,0,0,0,0,0,0,0,0,0,0,0,0,0,0,0,0,0,0,0,0,0,0,0,0,0,0,0,0,0,0,0,0,0,0,0,0,0,0,0,0,0,0,0.9399,0.9398,0,0.9349,0.9348,0.9348,0.9238,0.9235,0.9233,0.9231,0.9185,0.9186,0.9187,0,0,0,0,0,0,0,0,0,0,0,0,0,0.9403,0.9403,0.9399,0.9398,0.9397,0.9349,0.9348,0.9347,0.9238,0.9235,0.9233,0.923,0.9185,0.9186,0.9187,0,0,0,0,0,0,0,0,0,0,0,0,0,0.9382,0.9403,0.9399,0.9337,0.9331,0.9349,0.9348,0.9347,0.9239,0.9235,0.9232,0.9229,0.9185,0.9186,0.9187,0.9263,0,0,0.9191,0.9192,0,0,0,0,0,0,0,0,0.9383,0.9382,0.9347,0.9341,0.9334,0.9296,0.9333,0.9319,0.924,0.9274,0.9231,0.9227,0.9225,0.9223,0.9221,0.9261,0.9259,0.9191,0.9192,0.9193,0.9193,0,0,0,0,0,0,0,0.9385,0.9383,0.9379,0.9346,0.9339,0.9313,0.9306,0.933,0.9269,0.9271,0.9262,0.9258,0.9221,0.922,0.9219,0.9258,0.9191,0.9193,0.9193,0.9194,0.9357,0.936,0,0,0,0,0,0,0.9395,0.9385,0.9381,0.9377,0.9351,0.9315,0.9308,0.9312,0.9269,0.9259,0.9261,0.9253,0.922,0.9218,0.9217,0.9302,0.9193,0.9194,0.9195,0.9353,0.9357,0.9361,0,0,0,0,0,0,0.9395,0.9395,0.9383,0.9379,0.9375,0.9319,0.9324,0.9313,0.9311,0.9261,0.925,0.9271,0.9217,0.9215,0.9252,0.9299,0.9195,0.9196,0.9349,0.9355,0.9359,0.9474,0,0,0,0,0,0,0.9396,0.9396,0.9424,0.9381,0.9376,0.9417,0.9327,0.9314,0.9313,0.9302,0.9267,0.9258,0.9214,0.925,0.9253,0.9299,0.9197,0.9345,0.9351,0.9358,0.9466,0.9483,0.9497,0,0,0,0,0,0.9396,0.9459,0.9426,0.9426,0.9409,0.942,0.9418,0.9364,0.9318,0.9345,0.9313,0.926,0.9294,0.9255,0.9257,0.9304,0.9341,0.935,0.9357,0.9459,0.9479,0.9497,0,0,0,0,0,0,0.9512,0.9453,0.9415,0.9465,0.9448,0.9402,0.9435,0.9388,0.9385,0.9375,0.931,0.9303,0.9348,0.933,0.9288,0.9375,0.9309,0.9318,0.9385,0.9404,0.942,0.9423,0.9198,0,0,0,0,0,0.9542,0.9555,0.9503,0.9553,0.9546,0.9492,0.9495,0.9455,0.9435,0.9428,0.9399,0.9383,0.939,0.9396,0.94,0.9462,0.9453,0.9496,0.9512,0.9525,0.9533,0.9564,0.9582,0.9387,0.9387,0.9387,0,0,0.9607,0.9576,0.9589,0.9575,0.9557,0.9573,0.9487,0.9507,0.9518,0.9432,0.9464,0.9442,0.942,0.947,0.949,0.9456,0.9585,0.9535,0.9545,0.9547,0.9574,0.9593,0.9609,0.9393,0.9392,0.9391,0,0,0.9733,0.9711,0.9749,0.9733,0.9706,0.9669,0.9679,0.9639,0.962,0.965,0.9585,0.9598,0.9612,0.9599,0.9594,0.9713,0.9665,0.9717,0.9799,0.983,0.9845,0.9858,0.9901,0.9917,0.9725,0.9726,0.9726,0,0.9817,0.9836,0.9776,0.9799,0.9795,0.9715,0.9754,0.9741,0.9719,0.9718,0.9679,0.9694,0.9674,0.9719,0.9748,0.9747,0.9756,0.9721,0.9847,0.986,0.9872,0.9911,0.9927,0.9732,0.9731,0.9731,0.973,0,0.9941,0.9955,0.999,0.9967,0.9967,0.9999,0.9943,0.9951,0.991,0.9878,0.991,0.9883,0.988,0.9887,0.9849,0.9927,0.9906,0.9859,0.9791,0.9898,0.9934,0.9949,0.9741,0.9739,0.9737,0.9735,0,0,1.0139,1.008,1.0094,1.0082,1.0046,1.0057,1.0085,1.0079,1.0087,1.0074,1.0096,1.0108,1.0063,1.0058,1.0017,1.0045,1.0141,0.9993,0.9992,1.0022,1.0224,1.0261,1.0279,1.0108,1.011,1.0112,1.0226,0,1.0256,1.0298,1.0244,1.0299,1.0311,1.0235,1.0259,1.0241,1.0212,1.0219,1.0187,1.0196,1.0136,1.0133,1.0156,1.0124,1.018,1.0115,1.0129,1.013,1.0136,1.0298,1.0336,1.0445,1.024,1.0242,1.0244,0,1.0399,1.039,1.0446,1.0405,1.0408,1.0431,1.042,1.0428,1.0405,1.0382,1.0375,1.0326,1.0351,1.0285,1.032,1.0277,1.0279,1.0264,1.0267,1.0266,1.0194,1.0302,1.0478,1.0495,1.0266,1.0264,1.0262,0,1.0537,1.0539,1.0572,1.0564,1.0518,1.0536,1.0517,1.0491,1.0491,1.0483,1.0482,1.0478,1.0476,1.0474,1.0425,1.0382,1.0466,1.0396,1.0448,1.045,1.047,1.0469,1.0649,1.0472,1.0471,1.0471,1.0471,0,1.0673,1.0711,1.0633,1.0654,1.0693,1.063,1.0672,1.0646,1.0623,1.0638,1.0572,1.0588,1.0522,1.0532,1.0494,1.0528,1.0528,1.051,1.05,1.0516,1.0518,1.0517,1.0508,1.0475,1.0474,1.0473,1.0473,0,1.0835,1.0784,1.0815,1.0768,1.0757,1.0788,1.0748,1.0766,1.0731,1.0751,1.0752,1.0699,1.0706,1.0657,1.0656,1.063,1.0683,1.066,1.069,1.0683,1.0738,1.0733,1.0923,1.0945,1.0754,1.0756,1.0757,0,1.0925,1.0951,1.0906,1.091,1.0895,1.0903,1.0902,1.0841,1.0843,1.0818,1.0839,1.084,1.0838,1.0853,1.0816,1.0814,1.079,1.0857,1.079,1.0805,1.0791,1.079,1.0793,1.0871,1.0874,1.0876,1.0877,0,1.1091,1.1064,1.1064,1.1055,1.1055,1.1046,1.1032,1.104,1.0974,1.098,1.0985,1.0983,1.098,1.0983,1.0973,1.0956,1.0907,1.0898,1.091,1.0928,1.0944,1.0936,1.0728,1.0895,1.0893,1.0892,1.0891,1.089,1.1219,1.1239,1.1209,1.1211,1.1194,1.1183,1.1196,1.1163,1.1166,1.1157,1.1122,1.1134,1.111,1.1092,1.1079,1.1088,1.1056,1.1074,1.1078,1.1083,1.1093,1.0942,1.1086,1.1086,1.1085,1.1085,1.1084,0,1.1381,1.1358,1.136,1.1342,1.1344,1.1295,1.1277,1.1282,1.1293,1.1274,1.1272,1.1278,1.128,1.1242,1.1238,1.1253,1.123,1.1255,1.1253,1.125,1.1122,1.1112,1.1273,1.1273,1.1273,1.1273,1.1273,1.1273,1.1466,1.1496,1.1466,1.1487,1.1464,1.1473,1.1467,1.1456,1.1441,1.145,1.145,1.1424,1.1398,1.1392,1.1391,1.138,1.1382,1.1414,1.1396,1.1277,1.1259,1.1241,1.1231,1.1415,1.1416,1.1523,1.1524,1.1524]}]]